Retour au catalogue

COSMOS 2374

GLONASS

ActifNavigationMEO
NORAD 26566·PAYLOAD·🇷🇺 Russia

Lancé Oct 13, 2000 depuis Baikonur Cosmodrome

Loading…

Prochains Passages (prochaines 24 heures)

TLE

FraisSource: Space-Track

Époque: Sep 14, 2026, 03:11 UTC

1 26566U 00063C   26257.13276553 -.00000051  00000-0  00000-0 0  9995
2 26566  65.1191 310.5297 0080159 208.8425 136.0696  2.13099784201646

Suivez COSMOS 2374 en temps réel avec AllMySat

Download on the App Store